Regional Weather Roundup
Issued by NWS

Home | Current Version | Previous Version | Graphics & Text | Print | Product List | Glossary On
Versions: 1 2 3 4 5 6 7 8 9 10 11 12 13 14 15 16 17 18 19 20 21 22 23 24 25 26 27 28 29 30 31 32 33 34 35 36 37 38 39 40 41 42 43 44 45 46 47 48 49 50
522
ASUS45 KBOU 201410
RWRCO

WEATHER ROUNDUP FOR COLORADO
NATIONAL WEATHER SERVICE DENVER/BOULDER CO
700 AM MST MON NOV 20 2017

NOTE: "FAIR" INDICATES FEW OR NO CLOUDS BELOW 12000 FEET WITH NO
SIGNIFICANT WEATHER AND/OR OBSTRUCTIONS TO VISIBILITY.

COZ001>005-013-030-031-201500-
...NORTHWEST COLORADO...

CITY           SKY/WX    TMP DP  RH WIND       PRES   REMARKS
CRAIG          FAIR      22  17  81 SW5       30.10F WCI  16
HAYDEN         MOCLDY    23  14  68 E8        30.12  WCI  14
MEEKER         FAIR      26  19  74 CALM      30.12F
RABBIT EARS PA FAIR      23   5  46 W8        30.12F WCI  14
STEAMBOAT SPGS FAIR      14  11  88 CALM      30.11F
WALDEN         FAIR      30   5  34 S13G18    30.06F WCI  20
$$

COZ006>008-011-201500-
...WEST CENTRAL VALLEYS...

CITY           SKY/WX    TMP DP  RH WIND       PRES   REMARKS
GRAND JUNCTION FAIR      27  18  69 CALM      30.18F
MONTROSE       FAIR      25  18  74 SE5       30.21F WCI  19
EAGLE          FAIR      16  12  84 CALM      30.22S
RIFLE          FAIR      20  17  88 N5        30.20F WCI  13
DELTA          NOT AVBL
NUCLA          FAIR      23   9  54 E7        30.22F WCI  15
$$

COZ017>023-064>068-201500-
...SOUTHWEST COLORADO...

CITY           SKY/WX    TMP DP  RH WIND       PRES   REMARKS
DURANGO        FAIR      15  10  80 CALM      30.20R
CORTEZ         FAIR      17  10  74 CALM      30.19F
PAGOSA SPRINGS FAIR      19  13  76 CALM      30.20S
TELLURIDE      MOCLDY    31  -2  24 SE6       30.24R WCI  25
WOLF CREEK PAS FAIR      27 -11  18 W7        30.30S WCI  19
$$

COZ009-010-012-014-032>034-037-058>063-201500-
...CENTRAL COLORADO...

CITY           SKY/WX    TMP DP  RH WIND       PRES   REMARKS
ASPEN          FAIR      21  11  65 CALM      30.16F
BUENA VISTA    FAIR      34  -3  20 E3        30.05F
COPPER MTN     FAIR      28 -13  16 W21G30    30.20F WCI  15
BERTHOUD PASS  FAIR      21   9  58 NW39G59   30.14S WCI   1
COTTONWOOD PAS FAIR      41 -27   5 W24G40    30.07F
GUNNISON       FAIR       7   4  87 CALM      30.28F
KREMMLING      FAIR      18  12  79 CALM      30.18F
LEADVILLE      FAIR      24  -7  25 E6        30.17S WCI  17
MONARCH PASS   FAIR      23  -8  25 W45G55    30.26R WCI   2
SALIDA         FAIR      42 -11  10 S3        30.13F
SUNLIGHT       MOCLDY    27  -4  26 SW13G23   30.22F WCI  16
WILKERSON PASS FAIR      28 -15  14 W16G32    30.08S WCI  17
$$

COZ069>075-201500-
...SAN LUIS VALLEY/SANGRE DE CRISTO MOUNTAINS...

CITY           SKY/WX    TMP DP  RH WIND       PRES   REMARKS
ALAMOSA        FAIR      10   6  84 CALM      30.17S
DEL NORTE      FAIR      24   3  41 W14       30.17S WCI  11
LA VETA PASS   FAIR      27   0  31 SW33G49     N/A  WCI   9
SAGUACHE       FAIR      19   3  49 E3        30.17S
$$

COZ035-036-038>040-201500-
...NORTHERN COLORADO FRONT RANGE...

CITY           SKY/WX    TMP DP  RH WIND       PRES   REMARKS
DENVER INTL AP MOCLDY    43   4  19 N3        29.84F
DMNS CITY PARK   N/A     48  -3  12 SE8       29.85S
AURORA         MOCLDY    54  -8   7 W23G32    29.84F
FRONT RANGE AP MOCLDY   N/A  12   0 W9        29.86F
ERIE MUNI ARPT FAIR      35   5  28 CALM      29.88S
BOULDER MUN AP FAIR      46   5  18 CALM      29.81F
CENTENNIAL     MOCLDY    37   9  31 SE6       29.88F
BROOMFIELD     MOCLDY    57  -6   7 W31G45    29.84F
FORT COLLINS   FAIR      31  17  56 N6        29.81F WCI  25
LONGMONT       NOT AVBL
$$

COZ041-046-047-076>085-087-088-201500-
...PIKES PEAK/PALMER DIVIDE AND SOUTHERN FOOTHILLS...

CITY           SKY/WX    TMP DP  RH WIND       PRES   REMARKS
COLO. SPRINGS  MOCLDY    44   0  16 W6        29.95R
A. F. ACADEMY  FAIR      50 -12   7 W18G28    29.92F
SCHRIEVER AFB  MOCLDY    42  -5  13 CALM      29.93S
CHEYENNE MTN   FAIR      48  -3  11 CALM      29.90S
ELLICOTT       NOT AVBL
FALCON         FAIR      43  -6  12 W14       29.96R
FORT CARSON    CLOUDY    38   6  26 N3        29.91S
LIMON          FAIR      26  10  50 N10       29.90R WCI  16
MONUMENT HILL  FAIR      36   1  23 SW10      29.96R
CANON CITY     FAIR      45   3  18 NW12      29.95S
WALSENBURG     FAIR      48   1  14 SW10      29.98R
TRINIDAD       FAIR      35   9  33 W9        29.97R WCI  28
$$

COZ042>045-048>051-090-091-201500-
...NORTHEAST COLORADO...

CITY           SKY/WX    TMP DP  RH WIND       PRES   REMARKS
GREELEY ARPT   FAIR      21  17  84 NE10      29.83F WCI  10
AKRON          FAIR      36   8  31 SW8       29.83R
BURLINGTON     FAIR      29  11  47 SW9       29.84S WCI  20
WRAY           NOT AVBL
YUMA           FAIR      34  10  37 W7        29.82S WCI  28
STERLING       FAIR      27  19  74 SW13      29.81S WCI  16
HOLYOKE        FAIR      32  18  55 W7        29.79F WCI  26
FORT MORGAN    FAIR      28  13  54 W12       29.83F WCI  18
$$

COZ086-089-092>099-201500-
...SOUTHEAST COLORADO...

CITY           SKY/WX    TMP DP  RH WIND       PRES   REMARKS
PUEBLO         FAIR      29  16  58 S9        29.90S WCI  20
LA JUNTA       FAIR      31  13  47 W8        29.90S WCI  23
LAMAR          FAIR      23  13  65 SW9       29.89R WCI  13
SPRINGFIELD      N/A     35  12  38 W14       29.90S WCI  26
$$




USA.gov is the U.S. government's official web portal to all federal, state and local government web resources and services.